Location: La Pernelle
(49.6188°N, 1.2999°W)
Time: 10:54:50
(UTC+00:00)

Cosmos 1954 Rocket - Pass Details

Date: 28 October 2021
Orbit: 751 x 782 km, 74.0° (Epoch: 26 November)

Event Time Altitude Azimuth Distance (km) Brightness Sun altitude
Rises 19:15:39 0° 335° (NNW) 3,243 7.7 -24.1°
Reaches altitude 10° 19:18:01 10° 334° (NNW) 2,317 6.9 -24.5°
Maximum altitude 19:23:17 80° 249° (WSW) 790 4.0 -25.4°
Enters shadow 19:24:32 53° 173° (S) 944 4.3 -25.6°
